Temperature
18 18 18 18 18 18 18 18 18 18 18 18 18 18 18 18 18 18 18 17 18 18 18 18 18 18 18 18 18 18 17 17 17 17 17 17 17 17 17 17 17 17 17
18 18 18 18 18 18 18 18 18 18 18 18 18 18 18 18 18 18 17 17 17 18 18 18 18 18 18 18 17 17 17 17 17 17 17 17 17 17 17 17 17 17 17
18 18 18 18 18 18 18 18 18 18 18 18 18 18 18 18 18 18 17 17 17 17 17 17 17 17 17 17 17 17 17 17 17 17 17 17 17 17 17 17 17 17 17
19 18 18 19 19 18 18 18 18 18 18 18 18 18 18 18 18 18 17 17 17 17 17 17 17 17 17 17 17 17 17 17 17 17 17 17 17 17 17 16 16 16 16
19 19 19 19 19 18 18 18 18 18 18 18 18 18 18 18 18 17 17 17 17 17 17 17 18 17 17 17 17 17 17 17 17 17 17 16 16 16 16 16 16 16 16
19 19 19 19 19 18 18 18 18 18 18 18 18 18 18 18 18 17 17 17 17 17 17 17 17 17 17 17 17 17 17 17 17 17 17 16 16 16 16 16 16 16 16
19 19 18 19 19 18 18 18 18 18 18 18 18 18 18 18 18 17 17 17 17 17 17 17 17 17 17 17 17 17 17 17 17 17 17 17 16 16 16 16 16 16 16
19 18 18 18 18 18 18 18 18 18 18 18 17 17 17 17 17 18 17 17 17 17 17 17 17 17 17 17 17 17 17 17 17 17 17 16 16 16 16 16 16 16 16
18 18 18 18 18 18 18 18 18 18 18 17 17 17 17 17 17 18 17 17 17 17 17 17 17 17 17 17 17 17 17 17 17 17 16 16 16 16 16 16 16 16 16
18 18 18 17 17 17 17 17 17 17 17 17 17 17 17 17 17 17 17 17 17 17 17 17 17 17 17 17 17 16 16 16 16 16 16 16 16 16 16 16 16 16 16
18 17 17 17 17 17 17 17 17 17 17 17 16 16 16 16 16 16 16 17 17 17 17 17 17 17 17 17 17 16 16 16 16 16 16 16 16 16 16 16 16 16 16
17 17 17 16 16 16 16 16 16 16 16 16 16 16 16 16 16 16 16 16 16 16 16 16 17 17 17 17 16 16 16 16 16 16 16 16 16 16 16 16 16 16 16
16 16 16 16 16 15 15 16 16 16 16 16 16 16 15 15 15 15 15 15 15 16 16 16 16 16 16 16 16 16 16 16 16 16 16 16 16 16 16 16 16 16 16
15 15 15 15 15 15 15 15 15 15 15 15 15 15 15 15 15 15 15 15 15 15 15 16 16 16 16 16 16 16 16 16 15 15 15 15 16 16 16 16 16 15 15
15 15 15 15 15 15 15 15 15 15 15 15 15 15 15 15 15 15 15 15 15 14 15 15 15 16 16 16 16 16 16 15 15 15 15 15 15 15 15 15 15 15 15
14 14 14 14 14 14 14 14 15 15 15 15 15 15 15 15 15 15 15 15 14 14 14 15 15 15 15 15 15 15 15 15 15 15 15 15 15 15 15 15 15 15 15
14 14 14 14 14 14 14 15 15 15 15 15 15 15 15 15 15 15 15 14 14 14 14 14 14 14 15 15 15 15 15 15 15 15 15 15 15 15 15 15 15 15 15
14 14 14 14 14 15 15 15 15 15 15 15 15 15 15 15 15 14 14 14 14 14 14 14 14 14 14 14 15 14 15 14 14 14 14 14 14 14 14 14 14 14 14
14 14 14 14 15 15 15 15 15 15 15 15 15 15 15 15 14 14 14 14 14 14 14 14 14 14 14 14 14 14 14 14 14 14 14 14 14 14 14 14 14 14 14
14 14 14 14 14 14 14 15 15 15 15 15 15 15 15 14 14 14 14 14 14 14 14 14 14 14 14 14 14 14 14 14 14 14 14 14 14 14 14 14 14 14 14
14 14 14 14 14 14 14 14 15 15 15 15 15 14 14 14 14 14 14 14 14 14 14 14 14 14 14 14 13 13 13 13 13 13 13 13 13 14 13 14 14 13 13
13 13 13 14 14 14 14 14 14 14 14 15 15 14 14 14 14 14 14 14 14 14 14 14 13 13 13 13 13 13 13 13 13 13 13 13 13 13 13 13 13 13 13
13 13 13 13 13 13 13 14 14 14 14 14 14 14 14 14 14 14 14 14 14 14 14 13 13 13 13 13 13 13 13 13 13 12 13 13 13 13 13 13 13 13 13
12 12 12 12 13 13 13 13 13 14 14 14 14 14 14 14 14 14 14 14 14 14 13 13 13 13 13 13 13 13 13 12 12 12 12 12 12 12 12 12 12 12 12
11 11 12 12 12 12 12 13 13 13 13 13 13 13 13 14 14 14 14 14 14 13 13 13 13 13 13 13 13 13 12 12 12 12 12 12 12 12 12 12 12 12 12
11 11 11 11 12 12 12 12 13 13 13 13 13 13 13 13 13 13 13 14 13 13 13 13 13 13 13 12 12 12 12 12 12 12 11 11 11 11 11 11 11 11 11
Wind_Speed
6 7 7 9 9 10 8 6 6 6 6 7 6 6 7 9 10 10 9 10 8 7 7 6 6 5 4 4 4 5 6 6 7 7 7 7 7 6 6 5 5 4 3
9 7 6 7 8 11 10 7 6 4 4 3 4 6 8 11 11 10 10 9 9 8 7 7 6 5 5 4 4 5 5 6 6 6 7 7 7 7 6 5 5 4 4
12 10 8 8 8 12 10 6 4 4 3 3 4 5 6 9 10 11 11 10 9 9 8 8 7 7 6 6 5 5 5 5 6 6 6 7 7 7 7 6 5 5 5
14 10 8 8 10 10 6 4 4 3 3 3 3 3 4 5 8 10 10 10 10 9 9 9 9 8 7 6 6 5 5 5 5 5 6 6 7 7 7 7 6 6 6
14 9 6 6 8 5 4 5 3 3 3 2 3 2 2 4 5 7 7 10 11 10 10 10 10 9 8 7 7 6 6 5 5 5 5 5 6 6 6 7 7 7 7
12 9 5 6 7 5 4 4 4 3 3 3 2 2 0 1 2 4 6 9 11 12 12 10 10 10 10 9 8 7 6 6 5 5 5 4 5 5 5 6 6 7 7
9 8 6 6 6 6 5 5 4 4 2 2 3 2 3 2 2 3 4 5 7 11 12 12 11 10 10 10 9 9 8 7 6 5 5 4 4 4 4 5 6 6 6
8 7 7 6 6 5 5 4 4 3 2 2 3 2 2 4 3 1 2 5 7 8 9 12 12 12 11 10 11 11 9 8 7 6 5 5 4 3 4 4 4 5 5
7 7 5 5 6 5 5 5 5 5 3 2 2 4 4 4 3 3 2 2 5 6 6 9 12 13 13 13 12 12 11 10 8 7 6 5 4 3 2 3 3 4 4
6 7 6 4 4 4 4 4 4 3 4 3 2 2 3 4 3 2 3 2 2 5 6 5 8 13 16 15 15 15 14 13 11 9 8 6 5 4 4 3 3 4 4
5 6 6 5 4 3 4 4 4 3 3 3 3 3 2 2 2 3 3 3 2 2 3 4 5 9 15 16 16 17 17 16 14 12 10 8 7 6 5 4 4 4 4
4 5 4 4 4 3 3 3 4 4 3 3 3 3 3 3 4 4 4 4 3 3 3 3 4 6 12 15 17 18 20 18 16 14 12 10 9 8 7 6 6 5 4
3 4 4 4 3 3 3 3 3 4 4 4 4 4 4 5 4 4 4 4 3 3 3 2 3 5 9 13 15 19 20 20 19 17 15 13 11 9 8 8 7 6 5
3 3 3 3 3 3 3 3 3 3 4 4 5 5 4 4 4 5 4 4 2 2 2 4 2 3 7 11 15 18 17 20 20 18 17 15 13 12 10 9 8 7 6
2 3 2 2 2 2 2 2 3 4 3 4 5 5 4 3 4 4 4 4 5 3 3 4 3 2 4 8 12 14 15 18 20 19 18 17 16 14 13 11 10 8 6
1 1 1 1 2 2 2 2 2 3 3 3 3 4 3 3 3 4 4 4 4 5 4 3 4 3 2 4 9 12 14 15 17 18 19 18 17 17 15 14 12 11 9
1 1 1 1 1 2 3 3 4 4 3 3 2 3 3 3 3 3 3 3 4 4 4 3 2 2 2 3 3 7 10 11 11 15 18 19 19 18 17 16 15 14 12
2 1 1 1 1 1 1 2 3 3 4 3 2 2 2 2 3 2 3 3 3 4 4 4 2 2 3 3 3 3 4 7 9 12 16 18 19 19 18 17 16 16 15
5 4 4 4 4 4 2 1 1 2 2 3 3 3 3 3 2 2 2 2 2 2 3 3 2 2 2 1 0 1 1 1 4 7 11 15 17 18 17 17 17 17 16
8 7 6 5 5 4 4 3 2 1 0 1 2 3 3 4 3 3 2 2 2 2 2 2 1 1 1 1 0 1 1 1 2 2 4 7 10 13 15 16 17 17 18
9 7 7 6 5 4 5 4 3 2 2 2 3 3 2 4 5 4 3 2 3 2 2 1 1 1 1 0 0 0 1 1 1 1 1 2 3 4 8 13 16 17 18
7 7 7 6 6 6 7 6 3 2 2 4 4 3 2 2 3 4 5 4 4 3 3 2 1 1 1 1 0 0 0 1 2 2 1 2 1 3 4 7 11 13 15
7 7 7 6 5 6 9 7 6 3 3 3 3 3 2 2 3 3 3 3 2 2 3 4 2 2 1 1 1 1 0 1 2 2 1 2 2 2 3 4 6 7 9
6 6 7 7 6 9 12 9 7 5 4 4 3 3 4 3 2 4 4 3 2 2 1 2 2 2 1 1 2 2 1 0 1 2 1 1 2 2 2 3 3 4 4
7 6 6 7 8 9 13 11 8 5 5 6 5 4 4 3 2 5 5 5 4 3 3 4 3 3 3 3 3 3 2 2 2 3 2 1 2 3 2 3 4 5 5
6 7 8 8 8 9 13 13 9 5 6 5 5 5 6 5 6 7 5 5 5 2 3 4 5 6 5 5 5 3 2 2 1 2 2 2 2 3 3 3 3 6 6
Wind_Direction
193 189 200 207 215 219 220 222 227 234 240 241 228 196 172 167 168 172 179 176 171 171 169 166 166 166 167 168 171 169 165 166 162 164 164 163 160 157 155 157 159 160 160
191 191 197 204 216 221 222 219 218 215 212 192 168 157 158 165 173 175 179 180 179 179 180 180 177 178 178 177 179 182 183 182 177 178 179 178 177 174 173 177 181 187 194
196 194 199 203 211 218 219 211 210 196 182 160 146 148 151 163 172 178 181 181 182 182 182 183 181 180 184 189 189 185 185 190 189 191 192 191 191 190 190 194 198 204 212
201 188 190 196 200 201 195 180 168 155 155 147 153 162 155 160 174 182 182 183 183 185 188 187 184 184 186 188 188 187 188 191 195 200 201 199 199 199 203 209 214 219 224
197 182 181 180 176 170 171 175 150 143 145 154 173 173 177 171 176 184 186 189 191 191 193 193 188 186 186 188 190 189 189 192 196 199 198 197 200 205 211 217 223 230 234
187 175 168 162 154 147 153 150 136 124 132 147 127 97 282 242 194 186 191 194 197 197 198 196 194 194 195 192 191 191 190 192 197 203 205 203 202 209 220 227 232 238 242
171 166 163 156 149 151 158 150 132 131 127 121 91 37 341 316 252 217 193 184 196 200 200 201 201 200 201 201 195 194 195 196 199 206 209 207 211 218 230 238 243 246 249
156 167 161 160 153 148 148 146 140 143 152 136 130 111 345 330 312 278 188 189 202 200 201 207 206 207 203 200 202 200 198 196 199 202 207 212 214 225 236 244 252 257 259
148 148 155 152 152 152 163 167 160 154 165 179 155 148 162 222 283 313 286 205 196 196 203 206 208 211 208 205 205 205 198 195 199 203 206 209 212 215 229 253 264 271 274
135 135 139 144 153 161 171 176 165 160 157 178 190 193 175 160 176 284 317 314 225 203 204 207 209 209 208 205 206 207 204 202 203 205 207 211 218 225 230 248 265 271 277
128 129 136 137 148 170 184 178 163 167 170 179 182 176 176 185 176 178 257 301 318 259 222 211 202 206 206 204 205 208 208 206 205 206 210 217 225 231 234 240 253 267 275
131 136 141 148 154 162 178 181 182 179 180 195 199 188 179 182 193 187 212 239 259 276 262 230 205 203 203 203 205 208 208 208 208 208 211 218 226 232 237 239 245 256 266
152 151 150 150 145 162 186 174 175 189 190 201 206 208 207 209 182 178 188 214 236 275 292 269 229 209 203 200 206 209 210 210 212 212 213 216 221 229 236 241 243 248 256
148 149 151 161 171 185 192 183 184 205 199 208 216 212 211 213 195 187 180 173 199 270 284 267 274 222 206 199 207 208 211 214 216 217 217 218 220 224 228 235 242 248 253
138 142 147 182 210 210 202 194 207 216 206 210 208 201 205 211 203 199 185 174 172 205 253 259 254 247 215 208 211 206 210 216 218 220 222 223 223 224 226 230 234 238 241
72 113 162 180 201 210 210 203 219 223 201 203 193 180 189 193 190 189 185 182 177 179 220 253 245 250 225 219 217 210 215 221 222 223 226 228 227 228 228 230 231 232 233
69 124 192 188 236 220 210 195 208 195 182 196 192 182 202 192 186 189 180 178 183 177 211 256 256 253 227 230 213 214 221 225 230 232 233 233 231 231 231 232 233 234 235
39 24 25 5 302 302 271 212 212 198 185 185 193 178 208 188 188 193 185 195 195 192 197 237 265 261 248 234 220 222 225 226 229 239 239 237 234 233 233 234 236 237 239
39 33 41 36 28 26 18 348 217 200 191 192 188 182 191 163 180 181 184 195 201 193 190 207 244 254 275 289 242 257 243 265 247 253 249 244 239 237 236 237 240 242 244
51 44 45 48 52 46 36 32 33 44 94 190 187 177 172 159 160 157 154 163 153 146 159 180 226 278 298 337 68 264 305 314 298 295 268 249 240 238 240 243 245 246 248
51 49 52 47 48 49 38 33 40 60 77 92 93 93 128 148 148 143 135 138 131 120 113 110 85 38 331 349 290 256 256 315 305 294 285 261 241 241 245 248 248 250 251
42 49 53 48 40 35 31 34 43 76 95 112 120 105 95 88 110 107 112 129 142 138 138 127 119 132 275 257 213 88 56 10 325 329 325 297 247 255 254 248 254 257 257
38 43 42 41 33 18 27 32 45 72 87 114 136 141 126 94 91 91 84 69 63 97 141 148 149 190 207 211 154 118 183 218 257 298 350 311 319 289 280 266 263 265 262
35 35 33 30 31 24 28 37 51 66 72 69 95 130 124 105 107 122 111 86 49 35 83 136 157 181 185 175 159 165 185 262 325 347 23 328 328 315 319 323 326 308 293
36 34 30 30 31 19 26 41 56 63 71 59 58 76 98 92 94 125 117 105 75 36 49 85 103 84 82 96 105 80 51 49 21 351 3 1 333 330 337 344 2 13 5
36 37 38 32 30 23 26 41 55 70 75 65 51 46 56 74 83 104 109 111 100 65 66 67 55 48 48 49 55 66 86 78 60 1 345 2 348 358 0 352 3 16 14
Height
1549 1551 1552 1554 1555 1556 1557 1557 1558 1559 1559 1560 1560 1561 1561 1562 1563 1563 1563 1562 1562 1562 1562 1563 1563 1564 1564 1565 1565 1566 1566 1567 1567 1568 1568 1569 1569 1570 1570 1570 1570 1571 1571
1547 1549 1551 1553 1554 1555 1556 1557 1558 1558 1559 1560 1560 1561 1561 1562 1562 1562 1562 1562 1561 1561 1562 1562 1563 1563 1564 1564 1565 1565 1566 1566 1567 1567 1568 1568 1569 1569 1569 1570 1570 1570 1570
1546 1547 1549 1551 1553 1554 1555 1556 1557 1558 1559 1559 1560 1560 1561 1561 1561 1562 1562 1562 1562 1561 1561 1561 1562 1562 1563 1563 1564 1564 1565 1566 1566 1566 1567 1567 1568 1568 1568 1568 1569 1569 1569
1543 1545 1547 1549 1550 1552 1554 1555 1556 1557 1558 1559 1559 1560 1560 1560 1561 1561 1561 1561 1561 1561 1561 1561 1561 1562 1562 1562 1563 1563 1564 1564 1565 1565 1566 1566 1566 1567 1567 1567 1567 1567 1567
1541 1543 1545 1546 1548 1550 1552 1553 1554 1555 1556 1557 1558 1559 1559 1560 1560 1560 1560 1561 1561 1561 1561 1561 1561 1561 1561 1562 1562 1562 1563 1563 1563 1564 1564 1564 1565 1565 1565 1565 1565 1565 1566
1538 1540 1542 1544 1545 1547 1549 1551 1552 1553 1554 1555 1556 1557 1558 1558 1559 1559 1559 1559 1560 1560 1560 1561 1561 1561 1561 1561 1561 1561 1561 1562 1562 1562 1563 1563 1563 1563 1563 1563 1563 1563 1563
1534 1536 1539 1541 1543 1544 1546 1548 1549 1551 1552 1553 1554 1555 1556 1556 1557 1557 1557 1558 1558 1559 1559 1560 1560 1560 1560 1560 1560 1560 1560 1560 1560 1561 1561 1561 1561 1561 1561 1561 1561 1561 1561
1531 1533 1536 1538 1539 1542 1543 1545 1546 1548 1549 1550 1551 1552 1553 1554 1554 1555 1555 1555 1556 1557 1557 1558 1558 1559 1559 1559 1559 1559 1559 1559 1559 1559 1559 1560 1560 1560 1559 1559 1559 1559 1559
1527 1530 1532 1534 1536 1538 1540 1541 1542 1543 1545 1547 1548 1549 1550 1550 1551 1552 1552 1552 1553 1554 1555 1555 1556 1557 1557 1558 1558 1558 1558 1558 1558 1558 1558 1558 1558 1558 1558 1558 1558 1557 1557
1522 1525 1528 1530 1532 1534 1536 1537 1538 1539 1541 1542 1544 1545 1546 1547 1548 1548 1549 1550 1550 1551 1552 1553 1553 1554 1555 1556 1556 1557 1557 1557 1557 1557 1557 1557 1557 1557 1556 1556 1556 1556 1555
1517 1520 1522 1525 1527 1529 1531 1533 1534 1535 1537 1538 1539 1540 1541 1543 1544 1545 1546 1547 1547 1548 1549 1550 1550 1551 1552 1553 1554 1555 1555 1555 1555 1555 1555 1555 1555 1555 1555 1554 1554 1554 1554
1512 1515 1518 1520 1522 1525 1527 1529 1530 1532 1533 1534 1535 1535 1537 1538 1539 1541 1542 1543 1544 1545 1546 1547 1547 1548 1549 1550 1551 1552 1553 1553 1553 1553 1553 1553 1553 1553 1553 1553 1552 1552 1552
1509 1512 1514 1516 1519 1521 1524 1525 1526 1528 1529 1530 1531 1532 1532 1534 1535 1537 1538 1539 1540 1541 1542 1543 1544 1545 1546 1547 1548 1549 1550 1550 1551 1551 1551 1551 1551 1551 1551 1551 1551 1550 1550
1508 1510 1512 1514 1516 1518 1520 1522 1523 1524 1526 1526 1527 1528 1529 1530 1531 1533 1534 1535 1536 1537 1537 1538 1539 1540 1542 1543 1544 1545 1546 1547 1548 1548 1549 1549 1549 1549 1549 1549 1549 1548 1548
1507 1509 1510 1512 1514 1516 1518 1519 1520 1522 1523 1524 1525 1526 1527 1527 1528 1529 1531 1532 1533 1533 1533 1534 1536 1537 1538 1539 1540 1541 1542 1543 1544 1545 1546 1546 1546 1546 1546 1546 1546 1546 1546
1506 1508 1509 1511 1512 1514 1516 1517 1519 1520 1521 1522 1522 1523 1524 1525 1526 1527 1528 1528 1529 1530 1530 1531 1532 1533 1534 1535 1536 1537 1539 1540 1540 1541 1542 1543 1543 1543 1544 1544 1544 1544 1543
1507 1509 1510 1511 1512 1514 1515 1517 1518 1519 1519 1520 1521 1522 1522 1523 1524 1524 1525 1525 1526 1527 1527 1528 1529 1529 1530 1531 1532 1533 1534 1535 1536 1537 1538 1539 1539 1540 1540 1540 1541 1541 1541
1509 1510 1510 1511 1513 1514 1515 1516 1517 1518 1519 1519 1520 1520 1521 1521 1522 1522 1523 1523 1524 1524 1525 1525 1526 1526 1526 1527 1528 1529 1530 1531 1532 1533 1534 1534 1535 1535 1536 1537 1537 1537 1537
1510 1511 1512 1512 1513 1514 1515 1516 1517 1518 1518 1519 1519 1520 1520 1520 1521 1521 1521 1521 1522 1522 1523 1523 1523 1523 1523 1524 1524 1525 1526 1527 1527 1528 1529 1529 1530 1531 1531 1532 1532 1533 1533
1511 1511 1512 1512 1513 1514 1515 1516 1517 1517 1518 1518 1519 1519 1520 1520 1520 1520 1520 1520 1520 1520 1521 1521 1521 1521 1521 1521 1522 1522 1522 1523 1523 1523 1524 1524 1525 1525 1526 1527 1527 1528 1528
1512 1512 1513 1513 1513 1513 1514 1515 1516 1516 1517 1518 1518 1519 1519 1520 1520 1520 1520 1519 1520 1520 1520 1520 1520 1520 1520 1519 1520 1520 1520 1520 1519 1519 1519 1519 1520 1520 1521 1521 1522 1523 1523
1513 1513 1513 1512 1512 1512 1513 1513 1514 1515 1516 1517 1518 1518 1519 1520 1520 1520 1520 1520 1520 1520 1520 1520 1520 1519 1519 1519 1518 1518 1518 1518 1517 1517 1517 1516 1516 1516 1516 1516 1517 1517 1517
1514 1514 1513 1512 1512 1511 1511 1511 1512 1513 1514 1515 1517 1518 1519 1520 1520 1520 1521 1521 1521 1521 1521 1521 1520 1519 1519 1519 1518 1518 1517 1517 1516 1516 1515 1514 1514 1513 1513 1512 1512 1512 1512
1516 1515 1514 1513 1512 1511 1511 1510 1511 1511 1512 1514 1515 1517 1518 1519 1520 1521 1521 1521 1521 1521 1521 1521 1520 1520 1519 1519 1518 1518 1517 1516 1515 1515 1514 1513 1512 1511 1511 1510 1510 1509 1509
1518 1516 1515 1514 1513 1512 1511 1510 1510 1511 1511 1513 1514 1515 1517 1518 1519 1520 1520 1521 1521 1521 1521 1521 1520 1520 1519 1519 1518 1518 1517 1516 1515 1515 1514 1513 1512 1511 1510 1509 1508 1508 1507
1520 1519 1517 1516 1515 1513 1512 1511 1511 1511 1511 1512 1513 1515 1516 1517 1518 1519 1520 1520 1520 1521 1521 1520 1520 1520 1520 1519 1519 1518 1517 1516 1515 1515 1514 1513 1512 1511 1511 1510 1509 1507 1507